LRTZ Weather Reports


time (UTC)temp
C
wind
direction
speed
KPH
gust
KPH
rain 1hr
cm
rain 24hr
cm
rain mn
cm
humidity
%
barometer
mb
20260507124859 15 140 25.7 0.0 0.00 0.00 0.00 77 1019.0
20260507123441 15 140 25.7 0.0 0.00 0.00 0.00 77 1019.0
20260507121903 15 140 25.7 0.0 0.00 0.00 0.00 77 1019.0
20260507120403 15 140 25.7 0.0 0.00 0.00 0.00 77 1019.0
20260507114903 15 140 25.7 0.0 0.00 0.00 0.00 77 1019.0
20260507113430 -17 0.0 0.0 0.00 0.00 0.00
20260507111904 15 140 25.7 0.0 0.00 0.00 0.00 77 1019.0
20260507110402 -17 0.0 0.0 0.00 0.00 0.00
20260507104902 15 140 22.5 0.0 0.00 0.00 0.00 72 1019.0
20260507103402 15 140 22.5 0.0 0.00 0.00 0.00 72 1019.0
20260507101902 15 140 22.5 0.0 0.00 0.00 0.00 72 1019.0
20260507100403 15 140 22.5 0.0 0.00 0.00 0.00 72 1019.0
20260507094903 -17 0.0 0.0 0.00 0.00 0.00
20260507093403 -17 0.0 0.0 0.00 0.00 0.00
20260507091904 -17 0.0 0.0 0.00 0.00 0.00
20260507090403 -17 0.0 0.0 0.00 0.00 0.00
20260507084903 15 140 17.7 0.0 0.00 0.00 0.00 72 1019.0
20260507083403 15 140 17.7 0.0 0.00 0.00 0.00 72 1019.0
20260507081903 15 140 17.7 0.0 0.00 0.00 0.00 72 1019.0
20260507080403 15 140 17.7 0.0 0.00 0.00 0.00 72 1019.0
20260507074903 13 160 14.5 0.0 0.00 0.00 0.00 77 1019.0
20260507073402 13 160 14.5 0.0 0.00 0.00 0.00 77 1019.0
20260507071903 13 160 14.5 0.0 0.00 0.00 0.00 77 1019.0
20260507070402 13 160 14.5 0.0 0.00 0.00 0.00 77 1019.0
20260507064903 12 160 14.5 0.0 0.00 0.00 0.00 88 1018.0
20260507063403 12 160 14.5 0.0 0.00 0.00 0.00 88 1018.0
20260507061913 12 160 14.5 0.0 0.00 0.00 0.00 88 1018.0
20260507060403 12 160 14.5 0.0 0.00 0.00 0.00 88 1018.0
20260507054903 11 130 8.0 0.0 0.00 0.00 0.00 94 1018.0
20260507053410 11 130 8.0 0.0 0.00 0.00 0.00 94 1018.0
20260507051903 11 130 8.0 0.0 0.00 0.00 0.00 94 1018.0
20260507050403 -17 0.0 0.0 0.00 0.00 0.00
20260507044856 7 180 3.2 0.0 0.00 0.00 0.00 93 1017.0
20260507043402 7 180 3.2 0.0 0.00 0.00 0.00 93 1017.0
20260507041903 7 180 3.2 0.0 0.00 0.00 0.00 93 1017.0
20260507040402 7 180 3.2 0.0 0.00 0.00 0.00 93 1017.0
20260507034900 6 180 3.2 0.0 0.00 0.00 0.00 93 1017.0
20260507033402 6 180 3.2 0.0 0.00 0.00 0.00 93 1017.0
20260507031859 6 180 3.2 0.0 0.00 0.00 0.00 93 1017.0
20260507030402 6 180 3.2 0.0 0.00 0.00 0.00 93 1017.0
20260507024859 7 140 11.3 0.0 0.00 0.00 0.00 93 1018.0
20260507023402 7 140 11.3 0.0 0.00 0.00 0.00 93 1018.0
20260507021903 -17 0.0 0.0 0.00 0.00 0.00
20260507020402 -17 0.0 0.0 0.00 0.00 0.00
20260507014903 7 140 11.3 0.0 0.00 0.00 0.00 93 1018.0
20260507013402 7 140 11.3 0.0 0.00 0.00 0.00 93 1018.0
20260507011902 7 140 11.3 0.0 0.00 0.00 0.00 93 1018.0
20260507010403 7 140 11.3 0.0 0.00 0.00 0.00 93 1018.0
20260507004902 7 140 11.3 0.0 0.00 0.00 0.00 93 1018.0
20260507003403 7 150 8.0 0.0 0.00 0.00 0.00 93 1018.0
20260507001902 7 150 8.0 0.0 0.00 0.00 0.00 93 1018.0
20260507000405 7 150 8.0 0.0 0.00 0.00 0.00 93 1018.0
20260506234902 7 140 11.3 0.0 0.00 0.00 0.00 93 1018.0
20260506233402 7 140 11.3 0.0 0.00 0.00 0.00 93 1018.0
20260506231900 7 140 11.3 0.0 0.00 0.00 0.00 93 1018.0
20260506230402 7 140 11.3 0.0 0.00 0.00 0.00 93 1018.0
20260506224859 7 150 11.3 0.0 0.00 0.00 0.00 93 1018.0
20260506223402 7 150 11.3 0.0 0.00 0.00 0.00 93 1018.0
20260506221902 7 150 11.3 0.0 0.00 0.00 0.00 93 1018.0
20260506220402 -17 0.0 0.0 0.00 0.00 0.00
20260506214915 8 140 11.3 0.0 0.00 0.00 0.00 100 1018.0
20260506213403 8 140 11.3 0.0 0.00 0.00 0.00 100 1018.0
20260506211856 8 140 11.3 0.0 0.00 0.00 0.00 100 1018.0
20260506210402 8 140 11.3 0.0 0.00 0.00 0.00 100 1018.0
20260506204903 8 140 14.5 0.0 0.00 0.00 0.00 100 1017.0
20260506203402 8 140 14.5 0.0 0.00 0.00 0.00 100 1017.0
20260506201856 8 140 14.5 0.0 0.00 0.00 0.00 100 1017.0
20260506200402 8 140 14.5 0.0 0.00 0.00 0.00 100 1017.0
20260506194919 10 140 11.3 0.0 0.00 0.00 0.00 100 1017.0
20260506193426 10 140 11.3 0.0 0.00 0.00 0.00 100 1017.0
20260506191903 10 140 11.3 0.0 0.00 0.00 0.00 100 1017.0
20260506190403 10 140 11.3 0.0 0.00 0.00 0.00 100 1017.0
20260506184905 10 140 14.5 0.0 0.00 0.00 0.00 88 1017.0
20260506183403 10 140 14.5 0.0 0.00 0.00 0.00 88 1017.0
20260506181903 10 140 14.5 0.0 0.00 0.00 0.00 88 1017.0
20260506180403 -17 0.0 0.0 0.00 0.00 0.00
20260506174903 12 140 14.5 0.0 0.00 0.00 0.00 88 1016.0
20260506173402 12 140 14.5 0.0 0.00 0.00 0.00 88 1016.0
20260506171903 12 140 14.5 0.0 0.00 0.00 0.00 88 1016.0
20260506170402 12 140 14.5 0.0 0.00 0.00 0.00 88 1016.0
20260506164902 13 160 14.5 0.0 0.00 0.00 0.00 77 1016.0
20260506163402 13 160 14.5 0.0 0.00 0.00 0.00 77 1016.0
20260506161903 13 160 14.5 0.0 0.00 0.00 0.00 77 1016.0
20260506160402 13 160 14.5 0.0 0.00 0.00 0.00 77 1016.0
20260506154903 15 140 17.7 0.0 0.00 0.00 0.00 72 1016.0
20260506153402 15 140 17.7 0.0 0.00 0.00 0.00 72 1016.0
20260506151902 15 140 17.7 0.0 0.00 0.00 0.00 72 1016.0
20260506150408 15 140 17.7 0.0 0.00 0.00 0.00 72 1016.0
20260506144903 15 140 17.7 0.0 0.00 0.00 0.00 68 1016.0
20260506143414 15 140 17.7 0.0 0.00 0.00 0.00 68 1016.0
20260506141902 15 140 17.7 0.0 0.00 0.00 0.00 68 1016.0
20260506140526 -17 0.0 0.0 0.00 0.00 0.00
20260506134927 16 150 25.7 0.0 0.00 0.00 0.00 68 1017.0
20260506133402 16 150 25.7 0.0 0.00 0.00 0.00 68 1017.0
20260506131859 16 150 25.7 0.0 0.00 0.00 0.00 68 1017.0
20260506130411 16 150 25.7 0.0 0.00 0.00 0.00 68 1017.0